Skip Page Navigation
NASA JPL Caltech
NASA Logo - Jet Propulsion Laboratory + View the NASA Portal
+ Center for Near-Earth Object Studies
JPL Home Earth Solar System Stars & Galaxies Technology
JPL Solar System Dynamics
BODIES ORBITS EPHEMERIDES TOOLS PHYSICAL DATA DISCOVERY FAQ SITE MAP
JPL Small-Body Database Browser
Search: [ help ]  
392614 (2011 TM10)
Classification: Main-belt Asteroid          SPK-ID: 2392614
Ephemeris | Orbit Diagram | Orbital Elements | Mission Design | Physical Parameters | Discovery Circumstances | Close-Approach Data ]

[ show orbit diagram ]
Orbital Elements at Epoch 2459000.5 (2020-May-31.0) TDB
Reference: JPL 18 (heliocentric ecliptic J2000)
 Element Value Uncertainty (1-sigma)   Units 
e .1401782479862143 5.5196e-08  
a 2.631096440357602 3.1225e-08 au
q 2.262273951065508 1.4388e-07 au
i 6.228050859216666 7.681e-06 deg
node 27.27438590800809 5.8285e-05 deg
peri 250.8903359127242 6.4308e-05 deg
M 87.01869366565576 2.6791e-05 deg
tp 2458623.697621117879
(2019-May-20.19762112)
0.00011536 TDB
period 1558.847308358306
4.27
2.775e-05
7.598e-08
d
yr
n .23093987337293 4.1111e-09 deg/d
Q 2.999918929649696 3.5602e-08 au
  Orbit Determination Parameters
   # obs. used (total)      134  
   data-arc span      6648 days (18.20 yr)  
   first obs. used      2002-08-11  
   last obs. used      2020-10-23  
   planetary ephem.      DE431  
   SB-pert. ephem.      SB431-N16  
   condition code      0  
   norm. resid. RMS      .58206  
   source      ORB  
   producer      Otto Matic  
   solution date      2020-Nov-12 16:23:56  

Additional Information
 Earth MOID = 1.25547 au 
 Jupiter MOID = 2.14159 au 
 T_jup = 3.377 
[ show covariance matrix ]

Ephemeris | Orbit Diagram | Orbital Elements | Mission Design | Physical Parameters | Discovery Circumstances | Close-Approach Data ]

Physical Parameter Table
Parameter Symbol Value Units Sigma Reference Notes
absolute magnitude H 16.8   n/a MPO494989  
diameter diameter 2.750 km 0.230 urn:nasa:pds:neowise_diameters_albedos::2.0[mainbelt] (http://adsabs.harvard.edu/abs/2011ApJ...741...68M)  
geometric albedo albedo 0.034   0.005 urn:nasa:pds:neowise_diameters_albedos::2.0[mainbelt] (http://adsabs.harvard.edu/abs/2011ApJ...741...68M)  

392614 (2011 TM10)          Discovered 2010-Feb-01 by WISE at WISE
Reference: Last Updated: 2014-04-17

[ show close-approach data ]
Alternate Designations
 2011 TM10 = 2010 BQ129 = 2010 PF3 
Ephemeris | Orbit Diagram | Orbital Elements | Mission Design | Physical Parameters | Discovery Circumstances | Close-Approach Data ]
ABOUT SSD CREDITS/AWARDS PRIVACY/COPYRIGHT GLOSSARY LINKS
FirstGov 2020-Dec-02 01:24 UT
(server date/time)  
NASA Home Page
Site Manager:   Ryan S. Park
Webmaster  Alan B. Chamberlin